"Pseudo-MPEC" for P11XKzC

Created 2024 Sep 13 1:22:11 UT using Find_Orb

Click here for an explanation of pseudo-MPECs

 
 Astrometry: 
     P11XKzC* C2024 09 01.57159501 59 08.159-18 11 43.96   ~91Fb 22.12wXNEOCPF51
     P11XKzC  C2024 09 01.58194901 59 07.348-18 11 40.63   ~91Fb 21.99wXNEOCPF51
     P11XKzC  C2024 09 01.59228801 59 06.556-18 11 37.18   ~91Fb 22.43wXNEOCPF51
     P11XKzC  C2024 09 09.51948001 48 27.996-17 25 17.68   ~99EM 21.86wXNEOCPF51
     P11XKzC  C2024 09 09.53119601 48 26.809-17 25 13.43   ~99EM 22.28wXNEOCPF51
     P11XKzC  C2024 09 09.54292801 48 25.596-17 25 08.93   ~99EM 21.33wXNEOCPF51
     P11XKzC  C2024 09 12.51018201 43 40.787-17 05 12.07   ~9CKM 21.36GVNEOCPF51
     P11XKzC  C2024 09 12.51100201 43 40.695-17 05 11.55   ~9CKM 21.51GVNEOCPF51

Station data:
(F51) Pan-STARRS 1, Haleakala  (N20.707234 W156.255910)  US/Hawaii.
   Observers J. Bulger, T. Lowe, A. Schultz, M. Willman. Measurers K.
   Chambers, S. Chastel, T. de Boer, L. Denneau, J. Fairlamb, H. Flewelling,
   M. Huber, C.-C. Lin, E. Magnier, Y. Ramanjooloo, R. Wainscoat, R. Weryk.
   1.8-m Ritchey-Chrétien + CCD.

Orbital elements:  P11XKzC
   Perihelion 2024 Jul 2.89393 +/- 0.247 TT = 21:27:15 (JD 2460494.39393)
Epoch 2024 Sep 12.0 TT = JDT 2460565.5   Earth MOID: 0.1165      AutoNEOCP
M  27.01373496 +/- 0.06             (J2000 ecliptic)
n   0.37990759 +/- 0.00222          Peri.  230.87287 +/- 0.26
a   1.88806700 +/- 0.00737          Node    60.42743 +/- 0.33
e   0.4237065 +/- 0.00171           Incl.    7.65954 +/- 0.07
P   2.594/947.581d         H 22.21  G  0.15   U  8.6
q 1.08808072 +/- 0.00103    Q 2.68805327 +/- 0.0137
From 8 observations 2024 Sept. 1-12; mean residual 0".08
Residuals in arcseconds: 
240901 F51  .03-  .03+    240909 F51  .12-  .16+    240912 F51  .02+  .10-    
240901 F51  .08-  .03-    240909 F51  .11+  .06-    240912 F51  .02-  .08+    
240901 F51  .11+  .00     240909 F51  .01+  .07-    

Ephemerides (geocentric):
Date (UTC) HH   RA             Dec           delta  r     elong  mag " sig PA
---- --------  ------------   ------------  ------ ------ -----  --- --------
2024 09 13 01  01 42 47.543   -17 01 11.27  .36315 1.3164 143.7 21.8 .128 105
2024 09 13 02  01 42 43.360   -17 00 53.40  .36326 1.3166 143.7 21.8 .127 104
2024 09 13 03  01 42 39.175   -17 00 35.51  .36338 1.3169 143.8 21.8 .126 103
2024 09 13 04  01 42 34.986   -17 00 17.59  .36350 1.3171 143.8 21.8 .125 102
2024 09 13 05  01 42 30.794   -16 59 59.66  .36361 1.3173 143.8 21.8 .123 101
2024 09 13 06  01 42 26.599   -16 59 41.69  .36373 1.3175 143.9 21.8 .122 100
2024 09 13 07  01 42 22.400   -16 59 23.71  .36385 1.3178 143.9 21.8 .121  99
2024 09 13 08  01 42 18.199   -16 59 05.70  .36396 1.3180 144.0 21.8 .120  98
2024 09 13 09  01 42 13.994   -16 58 47.67  .36408 1.3182 144.0 21.8 .118  97
2024 09 13 10  01 42 09.786   -16 58 29.61  .36420 1.3184 144.1 21.8 .117  95
2024 09 13 11  01 42 05.574   -16 58 11.53  .36432 1.3186 144.1 21.8 .116  94
2024 09 13 12  01 42 01.360   -16 57 53.43  .36444 1.3189 144.2 21.8 .114  93
2024 09 13 13  01 41 57.143   -16 57 35.31  .36455 1.3191 144.2 21.8 .113  92
2024 09 13 14  01 41 52.922   -16 57 17.16  .36467 1.3193 144.2 21.8 .112  91
2024 09 13 15  01 41 48.698   -16 56 58.99  .36479 1.3195 144.3 21.8 .110  89
2024 09 13 16  01 41 44.471   -16 56 40.79  .36491 1.3198 144.3 21.8 .109  88
2024 09 13 17  01 41 40.241   -16 56 22.57  .36503 1.3200 144.4 21.8 .108  87
2024 09 13 18  01 41 36.008   -16 56 04.33  .36515 1.3202 144.4 21.8 .106  86
2024 09 13 19  01 41 31.772   -16 55 46.06  .36527 1.3204 144.5 21.8 .105  84
2024 09 13 20  01 41 27.533   -16 55 27.77  .36539 1.3206 144.5 21.8 .104  83
2024 09 13 21  01 41 23.291   -16 55 09.46  .36551 1.3209 144.6 21.8 .102  81
2024 09 13 22  01 41 19.046   -16 54 51.12  .36563 1.3211 144.6 21.8 .101  80
2024 09 13 23  01 41 14.798   -16 54 32.76  .36575 1.3213 144.7 21.8 .100  78
2024 09 14 00  01 41 10.547   -16 54 14.38  .36587 1.3215 144.7 21.8 .098  77
2024 09 14 01  01 41 06.293   -16 53 55.97  .36599 1.3218 144.7 21.8 .097  75
2024 09 14 02  01 41 02.036   -16 53 37.54  .36611 1.3220 144.8 21.8 .096  74
2024 09 14 03  01 40 57.776   -16 53 19.08  .36623 1.3222 144.8 21.8 .095  72
2024 09 14 04  01 40 53.513   -16 53 00.60  .36635 1.3224 144.9 21.8 .093  70
2024 09 14 05  01 40 49.248   -16 52 42.10  .36647 1.3226 144.9 21.8 .092  68
2024 09 14 06  01 40 44.979   -16 52 23.57  .36659 1.3229 145.0 21.8 .091  66
2024 09 14 07  01 40 40.707   -16 52 05.02  .36672 1.3231 145.0 21.8 .090  64
2024 09 14 08  01 40 36.433   -16 51 46.45  .36684 1.3233 145.1 21.8 .089  62
2024 09 14 09  01 40 32.156   -16 51 27.85  .36696 1.3235 145.1 21.8 .088  60
2024 09 14 10  01 40 27.876   -16 51 09.23  .36708 1.3238 145.1 21.8 .087  58
2024 09 14 11  01 40 23.593   -16 50 50.58  .36720 1.3240 145.2 21.8 .086  56
2024 09 14 12  01 40 19.307   -16 50 31.91  .36733 1.3242 145.2 21.8 .085  54
2024 09 14 13  01 40 15.019   -16 50 13.21  .36745 1.3244 145.3 21.8 .084  51
2024 09 14 14  01 40 10.727   -16 49 54.49  .36757 1.3247 145.3 21.8 .084  49
2024 09 14 15  01 40 06.433   -16 49 35.75  .36770 1.3249 145.4 21.8 .083  46
2024 09 14 16  01 40 02.137   -16 49 16.98  .36782 1.3251 145.4 21.8 .083  44
2024 09 14 17  01 39 57.837   -16 48 58.19  .36794 1.3253 145.5 21.8 .082  41
2024 09 14 18  01 39 53.535   -16 48 39.38  .36807 1.3256 145.5 21.8 .082  38
2024 09 14 19  01 39 49.230   -16 48 20.54  .36819 1.3258 145.5 21.8 .082  36
2024 09 14 20  01 39 44.922   -16 48 01.67  .36832 1.3260 145.6 21.8 .082  33
2024 09 14 21  01 39 40.612   -16 47 42.79  .36844 1.3262 145.6 21.8 .082  30
2024 09 14 22  01 39 36.299   -16 47 23.87  .36856 1.3265 145.7 21.8 .083  27
2024 09 14 23  01 39 31.983   -16 47 04.94  .36869 1.3267 145.7 21.8 .083  25
2024 09 15 00  01 39 27.665   -16 46 45.98  .36881 1.3269 145.8 21.8 .084  22